GW5964 Weather Reports


Display with metric or nautical units.
time (UTC)temp
F
wind
direction
speed
MPH
gust
MPH
rain 1hr
in
rain 24hr
in
rain mn
in
humidity
%
barometer
mb
20260906112048 65 76 0.0 0.0 0.00 0.00 0.00 99 1016.3
20260906111548 65 76 0.0 0.0 0.00 0.00 0.00 99 1016.4
20260906111043 65 76 0.0 0.0 0.00 0.00 0.00 99 1016.2
20260906110543 65 76 0.0 0.0 0.00 0.00 0.00 99 1016.2
20260906110042 65 78 0.0 0.0 0.00 0.00 0.00 99 1016.0
20260906105537 65 78 0.0 0.0 0.00 0.00 0.00 99 1016.0
20260906105033 65 78 0.0 0.0 0.00 0.00 0.00 99 1016.1
20260906104532 65 70 0.0 0.0 0.00 0.00 0.00 99 1015.8
20260906104032 64 70 0.0 0.0 0.00 0.00 0.00 99 1015.7
20260906103530 64 70 0.0 0.0 0.00 0.00 0.00 99 1015.5
20260906103025 65 70 0.0 0.0 0.00 0.00 0.00 99 1015.5
20260906102526 65 70 0.0 0.0 0.00 0.00 0.00 99 1015.4
20260906102020 65 70 0.0 0.0 0.00 0.00 0.00 99 1015.4
20260906101515 65 69 0.0 0.0 0.00 0.00 0.00 99 1015.4
20260906101010 65 69 0.0 0.0 0.00 0.00 0.00 99 1015.4
20260906100506 65 69 0.0 0.0 0.00 0.00 0.00 99 1015.4
20260906100000 65 68 0.0 0.0 0.00 0.00 0.00 99 1015.4
20260906095455 65 68 0.0 0.0 0.00 0.00 0.00 99 1015.4
20260906094950 65 86 0.0 0.0 0.00 0.00 0.00 99 1015.2
20260906094449 65 86 0.0 0.0 0.00 0.00 0.00 99 1015.3
20260906093946 65 86 0.0 0.0 0.00 0.00 0.00 99 1015.4
20260906093442 65 86 0.0 0.0 0.00 0.00 0.00 99 1015.5
20260906092941 65 86 0.0 0.0 0.00 0.00 0.00 99 1015.4
20260906092441 65 86 0.0 0.0 0.00 0.00 0.00 99 1015.4
20260906091936 65 87 0.0 0.0 0.00 0.00 0.00 99 1015.4
20260906091432 65 87 0.0 0.0 0.00 0.00 0.00 99 1015.3
20260906090929 65 71 0.0 0.0 0.00 0.00 0.00 99 1015.2
20260906090424 65 71 0.0 0.0 0.00 0.00 0.00 99 1015.0
20260906085918 65 71 0.0 0.0 0.00 0.00 0.00 99 1015.2
20260906085412 65 71 0.0 0.0 0.00 0.00 0.00 99 1015.0
20260906084911 65 71 0.0 0.0 0.00 0.00 0.00 99 1015.0
20260906084407 65 69 0.0 0.0 0.00 0.00 0.00 99 1015.1
20260906083905 65 70 0.0 0.0 0.00 0.00 0.00 99 1015.0
20260906083401 65 70 0.0 0.0 0.00 0.00 0.00 99 1015.1
20260906082901 64 73 0.0 0.0 0.00 0.00 0.00 99 1015.2
20260906082400 64 92 0.0 0.0 0.00 0.00 0.00 99 1015.1
20260906081857 65 78 0.0 0.0 0.00 0.00 0.00 99 1015.0
20260906081352 64 79 0.0 0.0 0.00 0.00 0.00 99 1015.1
20260906080848 64 79 0.0 0.0 0.00 0.00 0.00 99 1015.3
20260906080344 64 78 0.0 0.0 0.00 0.00 0.00 99 1015.0
20260906075843 64 79 0.0 0.0 0.00 0.00 0.00 99 1015.1
20260906075338 64 79 0.0 0.0 0.00 0.00 0.00 99 1015.1
20260906074834 64 80 0.0 0.0 0.00 0.00 0.00 99 1015.1
20260906074333 64 66 0.0 0.0 0.00 0.00 0.00 99 1015.0
20260906073832 64 58 0.0 0.0 0.00 0.00 0.00 99 1015.2
20260906073327 64 82 0.0 0.0 0.00 0.00 0.00 99 1015.1
20260906072824 64 82 0.0 0.0 0.00 0.00 0.00 99 1015.1
20260906072319 64 82 0.0 0.0 0.00 0.00 0.00 99 1015.0
20260906071815 64 82 0.0 0.0 0.00 0.00 0.00 99 1015.0
20260906071310 64 81 0.0 0.0 0.00 0.00 0.00 99 1015.1
20260906070807 64 83 0.0 0.0 0.00 0.00 0.00 99 1014.9
20260906070302 64 83 0.0 0.0 0.00 0.00 0.00 99 1015.1
20260906065801 64 83 1.0 1.0 0.00 0.00 0.00 99 1015.1
20260906065257 65 62 0.0 0.0 0.00 0.00 0.00 99 1015.2
20260906064752 64 63 0.0 1.0 0.00 0.00 0.00 99 1015.4
20260906064248 64 77 0.0 0.0 0.00 0.00 0.00 99 1015.6
20260906063743 64 77 0.0 0.0 0.00 0.00 0.00 99 1015.4
20260906063238 64 77 0.0 0.0 0.00 0.00 0.00 99 1015.5
20260906062733 64 100 0.0 1.0 0.00 0.00 0.00 99 1015.5
20260906062233 64 100 0.0 0.0 0.00 0.00 0.00 99 1015.7
20260906061728 65 60 1.0 1.0 0.00 0.00 0.00 99 1015.6
20260906061225 65 71 0.0 0.0 0.00 0.00 0.00 99 1015.7
20260906060720 65 66 1.0 1.0 0.00 0.00 0.00 99 1015.3
20260906060217 64 73 0.0 0.0 0.00 0.00 0.00 99 1015.4
20260906055713 65 72 0.0 0.0 0.00 0.00 0.00 99 1015.5
20260906055209 64 72 0.0 0.0 0.00 0.00 0.00 99 1015.5
20260906054704 64 72 0.0 0.0 0.00 0.00 0.00 99 1015.7
20260906054203 65 72 0.0 0.0 0.00 0.00 0.00 99 1015.6
20260906053700 65 72 0.0 0.0 0.00 0.00 0.00 99 1016.0
20260906053155 65 72 0.0 0.0 0.00 0.00 0.00 99 1015.6
20260906052651 65 72 0.0 0.0 0.00 0.00 0.00 99 1015.8
20260906052147 65 72 0.0 0.0 0.00 0.00 0.00 99 1016.1
20260906051643 65 72 0.0 0.0 0.00 0.00 0.00 99 1016.1
20260906051143 65 86 0.0 0.0 0.00 0.00 0.00 99 1016.0
20260906050638 65 86 0.0 0.0 0.00 0.00 0.00 99 1015.8
20260906050133 65 86 0.0 0.0 0.00 0.00 0.00 99 1015.8
20260906045632 65 86 0.0 0.0 0.00 0.00 0.00 99 1015.6
20260906045127 65 86 0.0 0.0 0.00 0.00 0.00 99 1015.7
20260906044623 65 86 0.0 0.0 0.00 0.00 0.00 99 1016.0
20260906044118 65 74 0.0 0.0 0.00 0.00 0.00 99 1015.6
20260906043615 65 74 0.0 0.0 0.00 0.00 0.00 99 1015.4
20260906043110 65 74 0.0 0.0 0.00 0.00 0.00 99 1015.4
20260906042609 65 74 0.0 0.0 0.00 0.00 0.00 99 1015.3
20260906042104 66 74 0.0 0.0 0.00 0.00 0.00 99 1015.1
20260906041600 66 74 0.0 0.0 0.00 0.00 0.00 99 1015.4
20260906041054 66 74 0.0 0.0 0.00 0.00 0.00 99 1015.7
20260906040550 66 82 0.0 0.0 0.00 0.00 0.00 99 1015.8
20260906040045 66 83 0.0 0.0 0.00 0.31 0.31 99 1015.7
20260906035541 66 83 0.0 0.0 0.00 0.31 0.31 99 1015.7
20260906035036 66 83 0.0 0.0 0.00 0.31 0.31 99 1016.2
20260906034536 66 82 0.0 0.0 0.00 0.31 0.31 99 1015.8
20260906034025 67 70 0.0 0.0 0.00 0.31 0.31 99 1016.3
20260906033520 67 71 0.0 0.0 0.00 0.31 0.31 99 1016.1
20260906033015 66 71 0.0 0.0 0.00 0.31 0.31 99 1016.1
20260906032507 66 71 0.0 0.0 0.00 0.31 0.31 99 1016.3
20260906032006 66 71 0.0 0.0 0.00 0.31 0.31 99 1016.2
20260906031502 66 71 0.0 0.0 0.00 0.31 0.31 99 1016.0
20260906030957 67 71 0.0 0.0 0.00 0.31 0.31 99 1016.3
20260906030452 67 71 0.0 0.0 0.00 0.31 0.31 99 1016.5
20260906025946 67 71 0.0 0.0 0.00 0.31 0.31 99 1016.6
20260906025446 67 71 0.0 0.0 0.00 0.31 0.31 99 1016.1
20260906024944 67 71 0.0 0.0 0.00 0.31 0.31 99 1016.2
20260906024444 67 71 0.0 0.0 0.00 0.31 0.31 99 1016.3
20260906023939 67 71 0.0 0.0 0.00 0.31 0.31 99 1016.3
20260906023436 67 71 0.0 0.0 0.00 0.31 0.31 99 1016.4
20260906022935 67 72 0.0 0.0 0.00 0.31 0.31 99 1016.4
20260906022431 67 71 0.0 0.0 0.00 0.31 0.31 99 1016.4
20260906021926 68 71 0.0 0.0 0.00 0.31 0.31 99 1016.4
20260906021420 68 71 0.0 0.0 0.00 0.31 0.31 98 1016.4
20260906020914 68 71 0.0 0.0 0.00 0.31 0.31 98 1016.5
20260906020415 68 71 0.0 0.0 0.00 0.31 0.31 98 1016.4
20260906015909 68 71 0.0 0.0 0.00 0.31 0.31 98 1016.3
20260906015408 68 71 0.0 0.0 0.00 0.31 0.31 98 1016.1
20260906014903 68 71 0.0 0.0 0.00 0.31 0.31 98 1016.2
20260906014402 68 71 0.0 0.0 0.00 0.31 0.31 98 1016.1
20260906013858 68 71 0.0 0.0 0.00 0.31 0.31 98 1016.0
20260906013354 68 71 0.0 0.0 0.00 0.31 0.31 97 1015.8
20260906012849 69 71 0.0 0.0 0.00 0.31 0.31 97 1015.8
20260906012344 69 72 0.0 0.0 0.00 0.31 0.31 97 1015.8
20260906011844 69 72 0.0 0.0 0.00 0.31 0.31 97 1015.8
20260906011339 69 72 0.0 0.0 0.00 0.31 0.31 97 1015.6
20260906010835 69 71 0.0 0.0 0.00 0.31 0.31 96 1015.7
20260906010331 69 71 0.0 0.0 0.00 0.31 0.31 96 1015.5
20260906005826 69 71 0.0 0.0 0.00 0.31 0.31 96 1015.4
20260906005325 69 72 0.0 0.0 0.00 0.31 0.31 96 1015.4
20260906004824 70 72 0.0 1.0 0.00 0.31 0.31 95 1015.3
20260906004324 70 70 0.0 0.0 0.00 0.31 0.31 95 1015.3
20260906003819 70 70 0.0 0.0 0.00 0.31 0.31 95 1015.2
20260906003314 71 70 0.0 0.0 0.00 0.31 0.31 94 1015.2
20260906002810 71 69 0.0 0.0 0.00 0.31 0.31 94 1015.3
20260906002310 71 69 0.0 0.0 0.00 0.31 0.31 93 1015.4
20260906001806 72 69 0.0 0.0 0.00 0.31 0.31 93 1015.2
20260906001301 72 53 2.0 2.0 0.00 0.31 0.31 93 1015.4
20260906000755 72 69 0.0 1.0 0.00 0.31 0.31 92 1015.4
20260906000249 72 69 0.0 0.0 0.00 0.31 0.31 92 1015.6
20260905235744 73 78 0.0 0.0 0.00 0.31 0.31 92 1015.6
20260905235244 73 68 0.0 0.0 0.00 0.31 0.31 91 1015.4
20260905234740 73 68 0.0 0.0 0.00 0.31 0.31 91 1015.4
20260905234235 73 65 1.0 1.0 0.00 0.31 0.31 91 1015.6
20260905233730 73 67 0.0 0.0 0.00 0.31 0.31 90 1015.5
20260905233229 74 70 0.0 0.0 0.00 0.31 0.31 90 1015.6
20260905232724 74 69 0.0 0.0 0.00 0.31 0.31 90 1015.7
20260905232220 74 69 0.0 1.0 0.00 0.31 0.31 90 1015.5
20260905231716 74 70 1.0 1.0 0.00 0.31 0.31 90 1015.6
20260905231211 75 52 1.0 1.0 0.00 0.31 0.31 89 1015.6
20260905230708 75 69 0.0 0.0 0.00 0.31 0.31 88 1015.5
20260905230205 76 52 1.0 1.0 0.00 0.31 0.31 87 1015.6
20260905225705 76 69 0.0 0.0 0.00 0.31 0.31 85 1015.6
20260905225200 77 79 0.0 0.0 0.00 0.31 0.31 85 1015.6
20260905224659 78 80 1.0 1.0 0.00 0.31 0.31 82 1015.5
20260905224154 78 70 0.0 1.0 0.00 0.31 0.31 81 1015.6
20260905223651 79 78 0.0 0.0 0.00 0.31 0.31 77 1015.7
20260905223147 80 117 0.0 1.0 0.00 0.31 0.31 76 1015.5
20260905222642 79 74 0.0 0.0 0.00 0.31 0.31 75 1015.7
20260905222137 79 51 1.0 2.0 0.00 0.31 0.31 77 1015.5
20260905221633 79 99 0.0 0.0 0.00 0.31 0.31 78 1015.4
20260905221130 80 76 0.0 0.0 0.00 0.31 0.31 76 1015.3
20260905220625 79 60 2.0 2.0 0.00 0.31 0.31 75 1015.4
20260905220121 80 78 0.0 0.0 0.00 0.31 0.31 74 1015.3
20260905215620 80 77 0.0 0.0 0.00 0.31 0.31 74 1015.2
20260905215116 80 115 0.0 1.0 0.00 0.31 0.31 72 1015.3
20260905214612 81 128 1.0 1.0 0.00 0.31 0.31 73 1015.3
20260905214111 80 340 3.0 3.0 0.00 0.31 0.31 72 1015.1
20260905213607 81 124 1.0 2.0 0.00 0.31 0.31 70 1014.8
20260905213103 81 106 2.0 2.0 0.00 0.31 0.31 72 1014.8
20260905212602 81 87 0.0 1.0 0.00 0.31 0.31 70 1014.9
20260905212102 82 103 1.0 2.0 0.00 0.31 0.31 67 1014.9
20260905211557 83 268 2.0 2.0 0.00 0.31 0.31 69 1014.6
20260905211053 83 50 2.0 2.0 0.00 0.31 0.31 66 1014.7
20260905210548 82 56 1.0 2.0 0.00 0.31 0.31 67 1014.8
20260905210043 84 116 1.0 1.0 0.00 0.31 0.31 67 1014.8
20260905205542 84 151 1.0 2.0 0.00 0.31 0.31 65 1014.6
20260905205037 84 249 1.0 2.0 0.00 0.31 0.31 68 1014.6
20260905204532 83 39 1.0 2.0 0.00 0.31 0.31 69 1014.7
20260905204026 82 192 1.0 1.0 0.00 0.31 0.31 73 1014.7
20260905203526 82 144 2.0 3.0 0.00 0.31 0.31 72 1014.8
20260905203022 82 302 2.0 3.0 0.00 0.31 0.31 72 1014.9
20260905202517 82 51 1.0 1.0 0.00 0.31 0.31 71 1014.7
20260905202013 83 92 1.0 1.0 0.00 0.31 0.31 72 1014.6
20260905201509 81 86 0.0 0.0 0.00 0.31 0.31 73 1014.7
20260905201008 82 349 3.0 3.0 0.00 0.31 0.31 74 1014.9
20260905200504 84 76 0.0 0.0 0.00 0.31 0.31 72 1014.8
20260905200003 82 101 0.0 1.0 0.00 0.31 0.31 75 1014.8
20260905195457 81 72 3.0 3.0 0.00 0.31 0.31 75 1015.0
20260905194952 82 22 3.0 3.0 0.00 0.31 0.31 72 1015.1
20260905194451 83 203 3.0 3.0 0.00 0.31 0.31 70 1015.1
20260905193947 83 134 1.0 1.0 0.00 0.31 0.31 73 1015.2
20260905193446 82 80 2.0 2.0 0.00 0.31 0.31 73 1015.2
20260905192942 82 77 0.0 1.0 0.00 0.31 0.31 75 1015.3
20260905192437 82 265 5.0 6.0 0.00 0.31 0.31 73 1015.5
20260905191932 82 99 1.0 1.0 0.00 0.31 0.31 73 1015.6
20260905191431 82 81 2.0 3.0 0.00 0.31 0.31 73 1015.5
20260905190931 81 190 3.0 3.0 0.00 0.31 0.31 72 1015.6
20260905190429 82 71 1.0 2.0 0.00 0.31 0.31 75 1015.6
20260905185928 81 1 1.0 1.0 0.00 0.31 0.31 76 1015.7
20260905185423 80 163 1.0 2.0 0.00 0.31 0.31 78 1016.1
20260905184921 80 3 0.0 1.0 0.00 0.31 0.31 76 1016.1
20260905184416 80 51 1.0 1.0 0.00 0.31 0.31 74 1016.2
20260905183915 81 41 3.0 3.0 0.00 0.31 0.31 73 1016.4
20260905183410 80 49 2.0 3.0 0.00 0.31 0.31 77 1016.5
20260905182905 80 56 0.0 1.0 0.00 0.31 0.31 77 1016.5
20260905182404 81 186 1.0 2.0 0.00 0.31 0.31 77 1016.5
20260905181901 80 153 0.0 1.0 0.00 0.31 0.31 78 1016.5
20260905181400 79 40 1.0 2.0 0.00 0.31 0.31 76 1016.5
20260905180859 79 39 1.0 2.0 0.00 0.31 0.31 76 1016.4
20260905180354 78 285 4.0 4.0 0.00 0.31 0.31 80 1016.6
20260905175849 79 116 1.0 2.0 0.00 0.31 0.31 79 1016.6
20260905175343 80 140 1.0 1.0 0.00 0.31 0.31 81 1016.4
20260905174838 80 60 2.0 2.0 0.00 0.31 0.31 79 1016.5
20260905174334 79 120 1.0 2.0 0.00 0.31 0.31 81 1016.8
20260905173829 78 351 4.0 4.0 0.00 0.31 0.31 81 1016.8
20260905173321 77 359 0.0 0.0 0.00 0.31 0.31 86 1016.7
20260905172821 79 294 5.0 8.0 0.00 0.31 0.31 82 1016.7
20260905172318 78 181 2.0 3.0 0.00 0.31 0.31 82 1016.6
20260905171814 77 274 3.0 3.0 0.00 0.31 0.31 82 1016.9
20260905171311 77 272 1.0 1.0 0.00 0.31 0.31 88 1017.0
20260905170807 76 75 2.0 2.0 0.00 0.31 0.31 88 1017.1
20260905170302 76 67 1.0 1.0 0.00 0.31 0.31 86 1017.0
20260905165801 75 24 0.0 1.0 0.00 0.31 0.31 88 1017.0
20260905165257 75 77 0.0 0.0 0.00 0.31 0.31 89 1017.3
20260905164758 74 21 1.0 2.0 0.00 0.31 0.31 89 1017.1
20260905164258 74 23 0.0 0.0 0.00 0.31 0.31 89 1017.3
20260905163753 74 32 0.0 0.0 0.00 0.31 0.31 90 1017.1
20260905163249 74 88 0.0 0.0 0.00 0.31 0.31 90 1017.0
20260905162745 74 100 0.0 1.0 0.00 0.31 0.31 91 1016.9
20260905162245 73 301 1.0 3.0 0.00 0.31 0.31 91 1017.0
20260905161739 73 350 2.0 3.0 0.00 0.31 0.31 91 1017.1
20260905161238 73 302 2.0 3.0 0.00 0.31 0.31 91 1017.2
20260905160737 73 316 3.0 3.0 0.00 0.31 0.31 91 1017.0
20260905160237 73 277 3.0 4.0 0.00 0.31 0.31 92 1017.1
20260905155732 72 273 1.0 1.0 0.00 0.31 0.31 91 1016.9
20260905155230 72 59 0.0 1.0 0.00 0.31 0.31 92 1017.0
20260905154720 72 66 2.0 2.0 0.00 0.31 0.31 91 1016.7
20260905154215 72 118 1.0 1.0 0.00 0.31 0.31 92 1016.8
20260905153710 71 121 1.0 2.0 0.00 0.31 0.31 92 1017.1
20260905153201 71 82 2.0 2.0 0.00 0.31 0.31 93 1017.0
20260905152655 71 109 1.0 3.0 0.00 0.31 0.31 92 1017.0
20260905152150 71 106 1.0 1.0 0.00 0.31 0.31 93 1017.3
20260905151645 71 97 0.0 1.0 0.00 0.31 0.31 92 1017.7
20260905151141 72 57 1.0 1.0 0.00 0.31 0.31 93 1017.7
20260905150635 72 74 1.0 1.0 0.00 0.31 0.31 91 1017.9
20260905150133 71 121 1.0 1.0 0.00 0.31 0.31 96 1018.2
20260905145631 69 61 1.0 2.0 0.00 0.31 0.31 97 1018.2
20260905145131 69 95 0.0 0.0 0.00 0.31 0.31 97 1018.3
20260905144625 69 82 1.0 1.0 0.00 0.31 0.31 97 1018.1
20260905144120 69 63 1.0 2.0 0.00 0.31 0.31 97 1018.6
20260905143620 69 78 0.0 1.0 0.00 0.31 0.31 97 1018.4
20260905143114 70 98 1.0 1.0 0.00 0.31 0.31 98 1018.4
20260905142613 69 63 0.0 0.0 0.00 0.31 0.31 98 1018.3
20260905142108 69 74 0.0 0.0 0.00 0.31 0.31 98 1018.3
20260905141607 69 71 0.0 0.0 0.00 0.31 0.31 98 1018.6
20260905141104 69 74 0.0 1.0 0.00 0.31 0.31 98 1018.6
20260905140559 69 114 2.0 2.0 0.00 0.31 0.31 98 1018.4
20260905140058 69 41 1.0 1.0 0.07 0.31 0.31 98 1018.6
20260905135553 69 96 1.0 1.0 0.07 0.31 0.31 98 1018.3
20260905135053 69 68 0.0 1.0 0.05 0.30 0.30 98 1018.4
20260905134548 69 55 2.0 3.0 0.47 0.30 0.30 98 1018.5
20260905134047 69 83 0.0 1.0 1.63 0.29 0.29 98 1018.6
20260905133543 69 75 0.0 0.0 1.21 0.21 0.21 97 1018.5
20260905133042 69 114 1.0 2.0 0.12 0.03 0.03 98 1019.0
20260905132542 70 129 2.0 2.0 0.00 0.01 0.01 99 1018.6
20260905132037 70 146 2.0 2.0 0.00 0.01 0.01 99 1018.3
20260905131532 70 65 3.0 3.0 0.00 0.01 0.01 99 1017.9
20260905131028 70 22 2.0 3.0 0.00 0.01 0.01 99 1018.1
20260905130526 70 124 1.0 2.0 0.00 0.01 0.01 99 1017.8
20260905130022 70 337 3.0 3.0 0.00 0.01 0.01 99 1017.2
20260905125521 70 78 0.0 0.0 0.00 0.01 0.01 99 1016.6
20260905125017 69 78 0.0 0.0 0.00 0.01 0.01 99 1016.7
20260905124513 69 77 0.0 0.0 0.00 0.01 0.01 99 1016.8
20260905124009 69 77 0.0 0.0 0.00 0.01 0.01 99 1016.6
20260905123505 69 77 0.0 0.0 0.00 0.01 0.01 99 1016.7
20260905123000 68 77 0.0 0.0 0.00 0.01 0.01 99 1016.9
20260905122455 68 77 0.0 0.0 0.00 0.01 0.01 99 1017.0
20260905121950 68 77 0.0 0.0 0.00 0.01 0.01 99 1016.9
20260905121445 68 77 0.0 0.0 0.00 0.01 0.01 99 1016.8
20260905120944 67 77 0.0 0.0 0.00 0.01 0.01 99 1016.7
20260905120433 66 77 0.0 0.0 0.00 0.01 0.01 99 1016.7
20260905115929 66 77 0.0 1.0 0.00 0.01 0.01 99 1016.6
20260905115427 66 76 0.0 0.0 0.00 0.01 0.01 99 1016.7
20260905114922 65 76 0.0 0.0 0.00 0.01 0.01 99 1016.5
20260905114422 65 76 0.0 0.0 0.00 0.01 0.01 99 1016.5
20260905113915 65 76 0.0 0.0 0.00 0.01 0.01 99 1016.4
20260905113410 64 76 0.0 0.0 0.00 0.01 0.01 99 1016.5
20260905112906 64 76 0.0 0.0 0.00 0.01 0.01 99 1016.5
20260905112401 64 76 0.0 0.0 0.00 0.01 0.01 99 1016.6